EW5799 Weather Reports


Display with metric or nautical units.
time (UTC)temp
F
wind
direction
speed
MPH
gust
MPH
rain 1hr
in
rain 24hr
in
rain mn
in
humidity
%
barometer
mb
20260506150100 78 132 5.0 7.0 0.00 0.00 0.00 96 1008.9
20260506144606 77 124 4.0 7.0 0.00 0.00 0.00 96 1008.8
20260506143102 77 154 3.0 7.0 0.00 0.00 0.00 95 1008.8
20260506141553 77 141 4.0 7.0 0.00 0.00 0.00 96 1008.9
20260506140020 77 119 3.0 6.0 0.00 0.00 0.00 96 1009.0
20260506134520 77 139 3.0 7.0 0.00 0.00 0.00 96 1009.0
20260506133050 77 127 3.0 7.0 0.00 0.00 0.00 97 1009.1
20260506131548 76 119 2.0 4.0 0.00 0.00 0.00 97 1009.1
20260506130052 76 128 3.0 5.0 0.00 0.00 0.00 97 1009.0
20260506124542 0 0.0 0.0 0.00 0.00 0.00 1009.0
20260506123039 0 0.0 0.0 0.00 0.00 0.00 1008.8
20260506121532 0 0.0 0.0 0.00 0.00 0.00 1008.7
20260506120023 0 0.0 0.0 0.00 0.00 0.00 1008.5
20260506114513 0 0.0 0.0 0.00 0.00 0.00 1008.3
20260506113016 0 0.0 0.0 0.00 0.00 0.00 1008.0
20260506111505 0 0.0 0.0 0.00 0.00 0.00 1007.9
20260506110005 0 0.0 0.0 0.00 0.00 0.00 1007.9
20260506104601 0 0.0 0.0 0.00 0.00 0.00 1008.1
20260506103056 0 0.0 0.0 0.00 0.00 0.00 1008.0
20260506101551 0 146 4.0 6.0 0.00 0.00 0.00 97 1007.8
20260506100051 76 154 4.0 6.0 0.00 0.00 0.00 97 1007.7
20260506094550 76 133 4.0 7.0 0.00 0.00 0.00 96 1007.7
20260506093048 76 145 3.0 6.0 0.00 0.00 0.00 96 1007.8
20260506091548 76 149 3.0 6.0 0.00 0.00 0.00 96 1007.8
20260506090038 76 143 4.0 6.0 0.00 0.00 0.00 96 1007.9
20260506084524 76 126 4.0 7.0 0.00 0.00 0.00 96 1008.0
20260506083021 76 141 4.0 7.0 0.00 0.00 0.00 96 1008.2
20260506081519 76 150 4.0 6.0 0.00 0.00 0.00 95 1008.1
20260506073015 76 137 5.0 8.0 0.00 0.00 0.00 95 1008.7
20260506071514 77 169 6.0 9.0 0.00 0.00 0.00 95 1008.8
20260506061509 77 170 7.0 12.0 0.00 0.00 0.00 94 1008.7
20260506044501 77 181 8.0 14.0 0.00 0.00 0.00 94 1008.8
20260506043105 77 181 10.0 15.0 0.00 0.00 0.00 94 1008.7
20260506041557 77 165 7.0 13.0 0.00 0.00 0.00 94 1008.8
20260506040105 77 178 8.0 14.0 0.00 0.00 0.00 94 1008.7
20260506034604 77 154 8.0 13.0 0.00 0.00 0.00 94 1008.7
20260506033053 77 164 9.0 15.0 0.00 0.00 0.00 94 1008.5
20260506031551 77 143 8.0 12.0 0.00 0.00 0.00 94 1008.4
20260506030052 77 145 5.0 11.0 0.00 0.00 0.00 94 1008.4
20260506024552 77 149 8.0 10.0 0.00 0.00 0.00 94 1008.2
20260506023039 77 155 7.0 11.0 0.00 0.00 0.00 94 1007.9
20260506021538 77 145 6.0 9.0 0.00 0.00 0.00 94 1007.8
20260506020031 77 150 7.0 11.0 0.00 0.00 0.00 93 1007.5
20260506014531 77 173 6.0 10.0 0.00 0.00 0.00 93 1007.3
20260506013028 77 154 6.0 13.0 0.00 0.00 0.00 92 1007.2
20260506011525 77 191 8.0 13.0 0.00 0.00 0.00 92 1007.0
20260506010025 78 169 8.0 13.0 0.00 0.00 0.00 92 1006.8
20260506004524 78 162 7.0 14.0 0.00 0.00 0.00 91 1006.6
20260506003024 78 148 10.0 16.0 0.00 0.00 0.00 91 1006.6
20260506001521 78 164 10.0 16.0 0.00 0.00 0.00 90 1006.4
20260506000020 78 141 12.0 15.0 0.00 0.00 0.00 90 1006.6
20260505234522 78 175 10.0 16.0 0.00 0.00 0.00 90 1006.5
20260505233019 79 168 11.0 16.0 0.00 0.00 0.00 89 1006.6
20260505231603 79 148 10.0 22.0 0.00 0.00 0.00 88 1006.6
20260505230051 79 201 12.0 17.0 0.00 0.00 0.00 87 1006.6
20260505224544 79 187 11.0 22.0 0.00 0.00 0.00 87 1006.5
20260505223042 79 159 11.0 18.0 0.00 0.00 0.00 88 1006.7
20260505221542 79 143 8.0 19.0 0.00 0.00 0.00 89 1006.8
20260505220042 79 162 10.0 18.0 0.00 0.00 0.00 88 1006.8
20260505214551 79 183 11.0 20.0 0.00 0.00 0.00 88 1007.1
20260505213031 79 157 13.0 19.0 0.00 0.00 0.00 88 1007.1
20260505211533 79 186 12.0 21.0 0.00 0.00 0.00 88 1007.2
20260505210029 79 208 16.0 20.0 0.00 0.00 0.00 87 1007.2
20260505204527 80 190 15.0 18.0 0.00 0.00 0.00 87 1007.5
20260505203025 79 173 12.0 21.0 0.00 0.00 0.00 88 1007.9
20260505201521 80 194 15.0 22.0 0.00 0.00 0.00 87 1008.0
20260505200020 79 168 11.0 19.0 0.00 0.00 0.00 87 1008.1
20260505194519 80 213 12.0 19.0 0.00 0.00 0.00 87 1008.3
20260505193018 80 195 11.0 17.0 0.00 0.00 0.00 87 1008.2
20260505191518 79 210 8.0 17.0 0.00 0.00 0.00 88 1008.5
20260505190019 79 197 7.0 14.0 0.00 0.00 0.00 89 1008.5
20260505184512 79 199 11.0 17.0 0.00 0.00 0.00 89 1008.5
20260505183010 78 140 9.0 20.0 0.00 0.00 0.00 89 1008.7
20260505181504 78 206 10.0 15.0 0.00 0.00 0.00 89 1008.9
20260505180003 78 180 8.0 15.0 0.00 0.00 0.00 89 1008.8
20260505174503 78 167 12.0 18.0 0.00 0.00 0.00 90 1008.9
20260505173100 78 167 10.0 17.0 0.00 0.00 0.00 90 1009.1
20260505171530 77 152 8.0 14.0 0.00 0.00 0.00 90 1009.2
20260505170029 78 212 9.0 15.0 0.00 0.00 0.00 89 1009.3
20260505164526 78 224 10.0 16.0 0.00 0.00 0.00 89 1009.1
20260505163025 78 153 9.0 17.0 0.00 0.00 0.00 89 1009.1
20260505161525 78 153 7.0 15.0 0.00 0.00 0.00 89 1009.1
20260505153023 78 210 8.0 17.0 0.00 0.00 0.00 88 1008.8
20260505151518 77 225 9.0 19.0 0.00 0.00 0.00 89 1008.7